Location: *
(43.0167°S, 179.9000°E)
Time: 21:47:50
(UTC+00:00)

Cosmos 2221 Rocket - Pass Details

Date: 12 August 2024
Orbit: 617 x 644 km, 82.5° (Epoch: 19 September)

Event Time Altitude Azimuth Distance (km) Brightness Sun altitude
Exits shadow 17:04:21 55° 256° (WSW) 767 3.6 -21.0°
Drops below altitude 10° 17:08:44 10° 180° (S) 2,030 6.2 -20.2°
Sets 17:11:01 0° 176° (S) 2,942 7.1 -19.8°
